STARLINK-2542, 48292

Orbit data source: Space-Track

STARLINK-2542, 48292 is a payload satellite owned by SpaceX/Seattle (US) in LEO that was launched on Thu, 29 Apr 2021 UTC via an FALCON 9 launch vehicle from the Air Force Eastern Test Range (AFETR). Payload-class satellites include a variety of spacecraft equipped with specific instruments for various scientific and technological missions. These include communications satellites like Starlink; space stations such as the ISS; scientific satellites like the Hubble; Earth observation satellites from companies like Planet Labs, Umbra, and HawkEye 360; GPS; miniature CubeSats for education and research; and military/defense satellites.

Loading next visibility...
Identifier
48292, 2021-036S
Orbit
LEO
Country
Flag of USUS
Related business
Manufacturer
SpaceX/Seattle
Mission
Operational Commercial Communications
Bus & Motor
STARLINK, Unknown motor
Mass
260 kg wet, ~248 kg dry
Launch date (UTC)
2021-04-29 (5 years ago)
Launch vehicle
FALCON 9
Launch site
Air Force Eastern Test Range (AFETR)
Object type
Payload
Rocket body
Debris
Shape & HBR
Box + 1 Pan, 10.1 m
Radar Cross Section
13.562 m², Large (>1 m²)

Expand to show TLE details & history
Last TLE update: 4 hours ago

TLE from 4 hours ago
0 STARLINK-2542
1 48292U 21036S   26036.51345868  .00005450  00000-0  20103-3 0  9997
2 48292  53.1578 224.7155 0001266  73.1165 286.9974 15.29360598263486
Epoch: 2026-02-05T12:19Z
TLE epoch observation values (Epoch: 2026-02-05T12:19:22.829Z)
Latitude
-0.00005°
Longitude
-95.79427°
Altitude
478.368 km
Speed
7.628 km/s
True Right ascension
14h 58m 51s
True Declination
0° 00' 00"
Sunlit
Object was in daylight at epoch
Visualization orbit readout
Latitude
Unknown
Longitude
Unknown
Altitude
Unknown
Speed
Unknown
Apparent Right ascension
Unknown
Apparent Declination
Unknown
Sunlit
N/A
Visualization observer readout
Local Sidereal Time
18:28:38
Azimuth
Unknown
Elevation
Unknown
Doppler factor
Unknown
Orbital elements
Apogee altitude
478.847 km
Perigee altitude
477.111 km
Semi-major axis
6,856.116 km
Eccentricity
0.00013
Inclination
53.1578°
RAAN
224.7155°
Arg. of periapsis
73.1165°
True anomaly
286.98353°
Mean anomaly
286.9974°
Eccentric anomaly
286.99046°
Mean motion
3.82319 °/min
Orbital period
94.16 mins
BSTAR
0.00020103
Loading maneuver chart data...
Computing Atmospheric mass density...
Loading historical data...
Loading historical data...
Loading historical data...
Loading historical data...
Loading historical data...
Loading historical data...
Loading historical data...

Documentation

Showing up to 5 results
|